Weather History for Lee's Summit, MO

Change the Weather History Date:

Monday, November 26, 2012

  Actual Average (KMKC) Record (KMKC)
Temperature  
Mean Temperature 34 °F -  
Max Temperature 42 °F 49 °F 70 °F (1998)
Min Temperature 23 °F 33 °F 15 °F (1996)
Degree Days  
Heating Degree Days 32    
Moisture  
Dew Point 23 °F    
Average Humidity 68    
Maximum Humidity 82    
Minimum Humidity 47    
Precipitation  
Precipitation 0.00 in - - ()
Sea Level Pressure  
Sea Level Pressure 30.30 in    
Wind  
Wind Speed 13 mph (NNE)    
Max Wind Speed 21 mph    
Max Gust Speed 28 mph    
Visibility 10 miles    
Events Snow    
Averages and records for this station are not official NWS values.
T = Trace of Precipitation, MM = Missing Value Source: NWS Daily Summary

Daily Weather History Graph

Daily Weather History Graph

Search for Another Location

Airport:

Trip Planner

Search our weather history database for the weather conditions in past years. The results will help you decide how hot, cold, wet, or windy it might be!

Date:

Astronomy

Nov. 26, 2012 Rise Set
Actual Time 7:12 AM CST 4:56 PM CST
Civil Twilight 6:43 AM CST 5:26 PM CST
Nautical Twilight 6:10 AM CST 5:59 PM CST
Astronomical Twilight 5:38 AM CST 6:31 PM CST
Moon 3:49 PM CST (11/26) 5:24 AM CST (11/26)
Length of Visible Light 10h 42m
Length of Day
9h 44m
Waxing Gibbous, 97% of the Moon is Illuminated
Nov 26
Waxing Gibbous
Nov 28
Full
Dec 6
Last Quarter
Dec 13
New
Dec 19
First Quarter

Hourly Weather History & Observations

Time (CST) Temp. Windchill Dew Point Humidity Pressure Visibility Wind Dir Wind Speed Gust Speed Precip Events Conditions
12:53 AM 35.1 °F 27.4 °F 27.0 °F 72% 30.08 in 10.0 mi ENE 10.4 mph - N/A   Clear
2:53 AM 32.0 °F 24.2 °F 26.1 °F 79% 30.10 in 10.0 mi NE 9.2 mph - N/A   Clear
3:53 AM 30.9 °F 22.2 °F 25.0 °F 79% 30.11 in 10.0 mi NE 10.4 mph - N/A   Clear
4:53 AM 30.9 °F 20.7 °F 24.1 °F 76% 30.14 in 10.0 mi NE 13.8 mph - N/A   Clear
5:53 AM 30.9 °F 21.2 °F 24.1 °F 76% 30.14 in 10.0 mi NE 12.7 mph 21.9 mph N/A   Clear
6:53 AM 30.9 °F 20.2 °F 24.1 °F 76% 30.17 in 10.0 mi NE 15.0 mph - 0.00 in   Clear
7:53 AM 30.9 °F 19.1 °F 24.1 °F 76% 30.20 in 10.0 mi NE 18.4 mph 24.2 mph 0.00 in Snow Light Snow
8:53 AM 33.1 °F 23.0 °F 24.1 °F 70% 30.24 in 10.0 mi ENE 15.0 mph 23.0 mph 0.00 in Snow Light Snow
9:53 AM 36.0 °F 25.6 °F 24.1 °F 62% 30.27 in 9.0 mi NE 18.4 mph 24.2 mph 0.00 in Snow Light Snow
10:53 AM 39.9 °F 32.1 °F 25.0 °F 55% 30.29 in 9.0 mi NE 13.8 mph - 0.00 in   Clear
11:53 AM 41.0 °F 33.1 °F 25.0 °F 53% 30.30 in 10.0 mi North 15.0 mph - N/A   Clear
12:53 PM 42.1 °F 34.2 °F 23.0 °F 47% 30.31 in 10.0 mi NNE 16.1 mph 27.6 mph N/A   Clear
1:53 PM 42.1 °F 33.9 °F 24.1 °F 49% 30.32 in 10.0 mi North 17.3 mph 27.6 mph N/A   Clear
2:53 PM 39.9 °F 31.1 °F 24.1 °F 53% 30.34 in 10.0 mi NNE 17.3 mph 26.5 mph N/A   Clear
3:10 PM 39.2 °F 29.3 °F 24.8 °F 56% 30.32 in 10.0 mi North 20.7 mph - N/A   Mostly Cloudy
3:53 PM 37.0 °F 27.7 °F 25.0 °F 62% 30.36 in 10.0 mi North 16.1 mph - N/A   Overcast
4:48 PM 33.8 °F 23.9 °F 26.6 °F 75% 30.34 in 10.0 mi North 15.0 mph - N/A   Mostly Cloudy
4:53 PM 33.1 °F 23.4 °F 26.1 °F 75% 30.38 in 10.0 mi NNE 13.8 mph - N/A   Scattered Clouds
5:53 PM 30.9 °F 22.8 °F 26.1 °F 82% 30.40 in 10.0 mi NNE 9.2 mph - N/A   Partly Cloudy
6:53 PM 30.0 °F 22.4 °F 24.1 °F 79% 30.42 in 10.0 mi North 8.1 mph - N/A   Clear
7:53 PM 28.9 °F 21.1 °F 21.9 °F 75% 30.44 in 10.0 mi North 8.1 mph - N/A   Clear
8:53 PM 28.0 °F 17.5 °F 19.9 °F 72% 30.45 in 10.0 mi North 12.7 mph - N/A   Clear
9:53 PM 26.1 °F 18.4 °F 18.0 °F 71% 30.47 in 10.0 mi North 6.9 mph - N/A   Clear
10:53 PM 25.0 °F 15.5 °F 16.0 °F 69% 30.48 in 10.0 mi North 9.2 mph - N/A   Clear
11:53 PM 23.0 °F 13.9 °F 12.9 °F 65% 30.49 in 10.0 mi North 8.1 mph - N/A   Clear